User: anonymous   Login
Location: Newark
(49.3000°N, 9.4667°E)
Time: 21:01:55
(UTC+00:00)
Language:

Altair - Orbit

View from above orbital plane
View from above orbital plane
View from above satellite
View from above satellite

Ground track
Ground track

The orbit data is extracted from the following two-line orbital elements,

1    50U 60009B   19144.44230600 -.00000019  00000-0  61792-3 0  9997
2    50  47.2312 251.7295 0114153 243.1595 115.7485 12.20108725623056
Epoch (UTC): 24 May 2019 10:36:55
Eccentricity: 0.0114153
inclination: 47.2312°
perigee height: 1501 km
apogee height: 1683 km
right ascension of ascending node: 251.7295°
argument of perigee: 243.1595°
revolutions per day: 12.20108725
mean anomaly at epoch: 115.7485°
orbit number at epoch: 62305

The dashed part of the orbit path shows where the satellite is in the earth's shadow,  

DLR